(229547) = 2005 YM138

Discovered at Kitt Peak on 2005-12-26 by Spacewatch.

Orbit

Orbit type: Main Belt

Note: WebGL enabled browser required.

epoch2024-03-31.0
epoch JD2460400.5
perihelion date2021-08-02.79479
perihelion JD2459429.29479
argument of perihelion (°)245.61744
ascending node (°)99.76546
inclination (°)7.54800
eccentricity0.3248678
perihelion distance (AU)1.7478964
Tisserand w.r.t. Jupiter3.3
ΔV w.r.t. Earth (km/sec)8.6
semimajor axis (AU)2.5889690
mean anomaly (°)229.78665
mean daily motion (°/day)0.23659950
aphelion distance (AU)3.430
period (years)4.17
P-vector [x]0.95985625
P-vector [y]-0.18517179
P-vector [z]-0.21068313
Q-vector [x]0.24883288
Q-vector [y]0.90880060
Q-vector [z]0.33490846
absolute magnitude16.47
phase slope0.15
uncertainty0
referenceE2024-GJ9
observations used640
oppositions16
arc length (days)8681
first opposition used2000
last opposition used2024
residual rms (arc-secs)0.68
perturbers coarse indicatorM-v
perturbers precise indicator003Ek
first observation date used2000-07-06.0
last observation date used2024-04-12.0
computer nameMPCLINUX
JD of orbit computation2456670.702430
perihelion JD uncertainty (days)7.4111E-05
argument of perihelion uncertainty (°)4.0621E-05
ascending node uncertainty (°)3.7366E-05
inclination uncertainty (°)9.7011E-06
eccentricity uncertainty 5.6519E-08
perihelion distance uncertainty (AU)1.4359E-07
Minimum Orbit Intersection Distances (in AU)
for orbit epoch: 2460400.5, reference: E2024-GJ9
Mercury1.35993
Venus1.02274
Earth0.75655
Mars0.39048
Jupiter2.0224
Saturn5.91256
Uranus15.0329
Neptune27.0504

Observations

636 total observations over interval: 2000 07 06.38155 – 2023 02 01.344883
These data are available for download (format description).

Date (UT) J2000 RA J2000 Dec Magn Location Ref
2000 07 06.38155 22 08 12.22 -18 07 45.7 18.2 R 699 – Lowell Observatory-LONEOS MPS 206207
2000 07 06.39539 22 08 12.60 -18 07 50.9   699 – Lowell Observatory-LONEOS MPS 206207
2000 07 06.40920 22 08 13.13 -18 07 55.1   699 – Lowell Observatory-LONEOS MPS 206207
2000 07 06.42297 22 08 13.39 -18 08 01.0   699 – Lowell Observatory-LONEOS MPS 206207
2000 08 02.29374 22 11 43.44 -22 07 09.0 17.8   704 – Lincoln Laboratory ETS, New Mexico MPS 213752
2000 08 02.30878 22 11 43.13 -22 07 19.5 18.4   704 – Lincoln Laboratory ETS, New Mexico MPS 213752
2000 08 02.32358 22 11 42.81 -22 07 29.2 18.6   704 – Lincoln Laboratory ETS, New Mexico MPS 213752
2000 08 02.33857 22 11 42.50 -22 07 38.8 18.4   704 – Lincoln Laboratory ETS, New Mexico MPS 213752
2000 08 02.35350 22 11 42.21 -22 07 47.7 18.0   704 – Lincoln Laboratory ETS, New Mexico MPS 213752
2000 08 20.35938 22 03 28.21 -25 14 12.3 17.5 R 699 – Lowell Observatory-LONEOS MPS 206207
2000 08 20.36880 22 03 27.80 -25 14 17.1   699 – Lowell Observatory-LONEOS MPS 206207
2000 08 20.37821 22 03 27.43 -25 14 21.6   699 – Lowell Observatory-LONEOS MPS 206207
2000 08 20.38763 22 03 27.05 -25 14 27.2   699 – Lowell Observatory-LONEOS MPS 206207
2002 01 07.35191 09 02 16.65 +21 29 04.9 21.5 V 691 – Steward Observatory, Kitt Peak-Spacewatch MPS 206207
2002 01 07.37412 09 02 15.55 +21 29 12.1 22.0 V 691 – Steward Observatory, Kitt Peak-Spacewatch MPS 206207
2002 01 07.39633 09 02 14.45 +21 29 20.3 21.5 V 691 – Steward Observatory, Kitt Peak-Spacewatch MPS 206207
2005 10 01.46730 07 52 05.91 +20 15 13.1 21.4 V G96 – Mt. Lemmon Survey MPS 206208
2005 10 01.46786 07 52 05.98 +20 15 13.2 21.4 V G96 – Mt. Lemmon Survey MPS 206208
2005 10 01.47292 07 52 06.34 +20 15 12.4 22.5 V G96 – Mt. Lemmon Survey MPS 206208
2005 10 01.47346 07 52 06.38 +20 15 11.9 22.5 V G96 – Mt. Lemmon Survey MPS 206208
2005 10 01.47853 07 52 06.67 +20 15 11.7 21.9 V G96 – Mt. Lemmon Survey MPS 206208
2005 10 01.47907 07 52 06.74 +20 15 11.8 21.6 V G96 – Mt. Lemmon Survey MPS 206208
2005 10 01.48416 07 52 07.10 +20 15 11.4 21.4 V G96 – Mt. Lemmon Survey MPS 206208
2005 10 01.48472 07 52 07.14 +20 15 11.1 21.7 V G96 – Mt. Lemmon Survey MPS 206208
2005 10 29.48190 08 17 54.31 +19 45 28.6 20.9 V G96 – Mt. Lemmon Survey MPS 206208
2005 10 29.48834 08 17 54.56 +19 45 28.6 21.6 V G96 – Mt. Lemmon Survey MPS 206208
2005 10 29.49456 08 17 54.81 +19 45 28.0 21.9 V G96 – Mt. Lemmon Survey MPS 206208
2005 10 29.50085 08 17 55.06 +19 45 28.2 22.1 V G96 – Mt. Lemmon Survey MPS 206208
2005 12 26.40694 08 11 48.84 +22 19 12.8   691 – Steward Observatory, Kitt Peak-Spacewatch MPS 157907
2005 12 26.42897 08 11 47.64 +22 19 19.4   691 – Steward Observatory, Kitt Peak-Spacewatch MPS 157907
2005 12 26.44634 08 11 46.73 +22 19 25.2   691 – Steward Observatory, Kitt Peak-Spacewatch MPS 157907
2005 12 30.34018 08 08 16.73 +22 39 38.3 20.7 V 691 – Steward Observatory, Kitt Peak-Spacewatch MPS 157907
2005 12 30.35756 08 08 15.70 +22 39 43.7 20.6 V 691 – Steward Observatory, Kitt Peak-Spacewatch MPS 157907
2005 12 30.37495 08 08 14.74 +22 39 49.1 20.7 V 691 – Steward Observatory, Kitt Peak-Spacewatch MPS 157907
2006 02 07.16847 07 30 00.28 +25 26 55.3 21.0 V G96 – Mt. Lemmon Survey MPS 206208
2006 02 07.17530 07 29 59.92 +25 26 55.8 20.3 V G96 – Mt. Lemmon Survey MPS 206208
2006 02 07.18197 07 29 59.64 +25 26 57.3 21.3 V G96 – Mt. Lemmon Survey MPS 206208
2008 05 28.37161 16 46 39.10 -15 46 04.0 18.6 V G96 – Mt. Lemmon Survey MPS 250448
2008 05 28.37896 16 46 38.60 -15 46 04.6 18.7 V G96 – Mt. Lemmon Survey MPS 250448
2008 05 28.38630 16 46 38.13 -15 46 04.5 19.1 V G96 – Mt. Lemmon Survey MPS 250448
2008 05 28.39351 16 46 37.66 -15 46 04.8 18.9 V G96 – Mt. Lemmon Survey MPS 250448
2008 06 01.26590 16 42 35.06 -15 48 17.1 19.3   704 – Lincoln Laboratory ETS, New Mexico MPS 250967
2008 06 01.27617 16 42 34.40 -15 48 18.4 19.9   704 – Lincoln Laboratory ETS, New Mexico MPS 250967
2008 06 01.30714 16 42 32.26 -15 48 19.5 19.9   704 – Lincoln Laboratory ETS, New Mexico MPS 250967
2009 11 18.44753 07 25 17.29 +20 27 47.2 20.6 V G96 – Mt. Lemmon Survey MPS 303336
2009 11 18.45451 07 25 17.14 +20 27 48.3 20.6 V G96 – Mt. Lemmon Survey MPS 303336
2009 11 18.46154 07 25 17.04 +20 27 49.3 20.6 V G96 – Mt. Lemmon Survey MPS 303336
2009 11 18.46873 07 25 16.93 +20 27 50.7 20.8 V G96 – Mt. Lemmon Survey MPS 303336
2009 12 16.36470 07 07 20.42 +22 05 43.7 19.9 V G96 – Mt. Lemmon Survey MPS 307318
2009 12 16.37163 07 07 19.99 +22 05 44.7 20.2 V G96 – Mt. Lemmon Survey MPS 307318
2009 12 16.37860 07 07 19.56 +22 05 46.6 20.2 V G96 – Mt. Lemmon Survey MPS 307318
2009 12 16.38558 07 07 19.12 +22 05 48.0 20.2 V G96 – Mt. Lemmon Survey MPS 307318
2009 12 16.39252 07 07 18.69 +22 05 49.9 20.1 V G96 – Mt. Lemmon Survey MPS 307318
2009 12 25.28023 06 57 53.68 +22 43 00.0   691 – Steward Observatory, Kitt Peak-Spacewatch MPS 308656
2009 12 25.29793 06 57 52.49 +22 43 03.5   691 – Steward Observatory, Kitt Peak-Spacewatch MPS 308656
2009 12 25.31563 06 57 51.27 +22 43 08.2   691 – Steward Observatory, Kitt Peak-Spacewatch MPS 308656
2011 03 10.20899 11 18 47.77 +14 59 38.9 21.2 V G96 – Mt. Lemmon Survey MPS 374718
2011 03 10.21771 11 18 47.34 +14 59 42.3 21.7 V G96 – Mt. Lemmon Survey MPS 374718
2011 03 10.22646 11 18 46.83 +14 59 45.3 21.2 V G96 – Mt. Lemmon Survey MPS 374718
2011 03 10.23522 11 18 46.40 +14 59 48.0 20.8 V G96 – Mt. Lemmon Survey MPS 374718
2012 05 01.39041 15 37 35.50 -09 57 15.3 20.1 V G96 – Mt. Lemmon Survey MPS 423579
2012 05 01.39616 15 37 35.18 -09 57 14.4 20.2 V G96 – Mt. Lemmon Survey MPS 423579
2012 05 01.40139 15 37 34.89 -09 57 13.5 20.0 V G96 – Mt. Lemmon Survey MPS 423579
2012 05 01.40662 15 37 34.64 -09 57 12.7 20.1 V G96 – Mt. Lemmon Survey MPS 423579
2012 05 15.32948 15 24 12.56 -09 20 12.6 19.9 V G96 – Mt. Lemmon Survey MPS 424802
2012 05 15.33635 15 24 12.13 -09 20 11.5 19.8 V G96 – Mt. Lemmon Survey MPS 424802
2012 05 15.34330 15 24 11.70 -09 20 10.6 20.0 V G96 – Mt. Lemmon Survey MPS 424802
2012 05 15.35022 15 24 11.26 -09 20 09.8 20.0 V G96 – Mt. Lemmon Survey MPS 424802
2012 05 30.24770 15 09 27.75 -08 57 07.7 20.1 V G96 – Mt. Lemmon Survey MPS 426421
2012 05 30.25410 15 09 27.39 -08 57 07.3 20.0 V G96 – Mt. Lemmon Survey MPS 426421
2012 05 30.26052 15 09 27.03 -08 57 07.2 20.1 V G96 – Mt. Lemmon Survey MPS 426421
2012 05 30.26694 15 09 26.67 -08 57 07.0 20.0 V G96 – Mt. Lemmon Survey MPS 426421
2013 10 17.53818 06 05 43.486 +17 47 37.42 20.2 r F51 – Pan-STARRS 1, Haleakala MPS 483363
2013 10 17.55090 06 05 43.715 +17 47 37.95 20.1 r F51 – Pan-STARRS 1, Haleakala MPS 483363
2013 10 17.56427 06 05 43.960 +17 47 38.40 20.0 i F51 – Pan-STARRS 1, Haleakala MPS 483363
2013 10 17.57812 06 05 44.189 +17 47 38.91 19.8 i F51 – Pan-STARRS 1, Haleakala MPS 483363
2013 12 24.31391 05 20 23.90 +19 57 21.0 19.2 V G96 – Mt. Lemmon Survey MPS 493170
2013 12 24.32029 05 20 23.48 +19 57 22.0 19.4 V G96 – Mt. Lemmon Survey MPS 493170
2013 12 24.32667 05 20 23.06 +19 57 23.1 19.3 V G96 – Mt. Lemmon Survey MPS 493170
2013 12 24.33305 05 20 22.67 +19 57 24.0 19.3 V G96 – Mt. Lemmon Survey MPS 493170
2014 01 02.30960 05 11 51.09 +20 21 12.9 19.4 V G96 – Mt. Lemmon Survey MPS 494963
2014 01 02.31063 05 11 51.02 +20 21 13.2 19.4 V G96 – Mt. Lemmon Survey MPS 494963
2014 01 02.31484 05 11 50.82 +20 21 13.6 19.3 V G96 – Mt. Lemmon Survey MPS 494963
2014 01 02.31586 05 11 50.76 +20 21 13.8 19.5 V G96 – Mt. Lemmon Survey MPS 494963
2014 01 02.32007 05 11 50.55 +20 21 14.6 19.4 V G96 – Mt. Lemmon Survey MPS 494963
2014 01 02.32110 05 11 50.49 +20 21 14.9 19.8 V G96 – Mt. Lemmon Survey MPS 494963
2014 01 02.32531 05 11 50.30 +20 21 15.4 19.9 V G96 – Mt. Lemmon Survey MPS 494963
2014 01 02.32633 05 11 50.24 +20 21 15.8 19.8 V G96 – Mt. Lemmon Survey MPS 494963
2014 01 03.12323 05 11 10.78 +20 23 22.6 20.4 V G96 – Mt. Lemmon Survey MPS 494963
2014 01 03.12566 05 11 10.67 +20 23 23.3 19.9 V G96 – Mt. Lemmon Survey MPS 494963
2014 01 03.12809 05 11 10.55 +20 23 23.5 20.4 V G96 – Mt. Lemmon Survey MPS 494963
2014 01 03.13052 05 11 10.43 +20 23 24.2 20.0 V G96 – Mt. Lemmon Survey MPS 494963
2014 01 09.08751 05 06 46.87 +20 39 18.2 19.8 V G96 – Mt. Lemmon Survey MPS 496360
